Location: La Brionne
(46.1728°N, 1.7849°E)
Time: 23:06:31
(UTC+00:00)

NANOSAT C BR1 - Visible Passes

Search period start: 22 March 2023 00:00
Search period end: 01 April 2023 00:00
Orbit: 576 x 590 km, 98.0° (Epoch: 22 March)

Date Brightness Start Highest point End Pass type
(mag) Time Alt. Az. Time Alt. Az. Time Alt. Az.
22 Mar ? 02:02:55 10° NNE 02:03:52 16° NE 02:03:52 16° NE visible
22 Mar ? 03:38:35 10° NNW 03:40:17 19° NNW 03:40:17 19° NNW visible
23 Mar ? 02:08:52 10° NNE 02:10:05 18° NE 02:10:05 18° NE visible
23 Mar ? 03:44:45 10° NNW 03:46:30 18° NW 03:46:30 18° NW visible
24 Mar ? 02:14:48 10° NNE 02:16:17 20° NE 02:16:17 20° NE visible
24 Mar ? 03:50:56 10° NNW 03:52:42 17° NW 03:52:42 17° NW visible
25 Mar ? 02:20:45 10° NNE 02:22:29 23° NNE 02:22:29 23° NNE visible
25 Mar ? 03:57:09 10° NNW 03:58:54 16° NW 03:58:54 16° NW visible
26 Mar ? 02:26:41 10° NNE 02:28:39 26° NNE 02:28:39 26° NNE visible
26 Mar ? 04:03:23 10° NNW 04:05:03 14° NW 04:05:03 14° NW visible
27 Mar ? 02:32:37 10° NNE 02:34:48 30° NNE 02:34:48 30° NNE visible
27 Mar ? 04:09:39 10° NNW 04:11:13 13° NW 04:11:13 13° NW visible
28 Mar ? 02:38:33 10° NNE 02:40:56 34° NNE 02:40:56 34° NNE visible
28 Mar ? 04:16:04 10° NW 04:17:20 11° WNW 04:17:20 11° WNW visible
29 Mar ? 02:44:29 10° NNE 02:47:03 37° N 02:47:03 37° N visible
29 Mar ? 04:23:08 10° NW 04:23:16 10° WNW 04:23:23 10° WNW visible
30 Mar ? 02:50:24 10° N 02:53:09 41° N 02:53:09 41° N visible
31 Mar ? 02:56:18 10° N 02:59:13 43° N 02:59:13 43° N visible
